This demonstration page uses our WeatherBlox Daily Observations layout. Learn more.

Hourly Observations for February 27, 2020

Temp ( °F °C ) Dew Point ( °F °C ) Humidity (%) Winds ( mph kmh ) Pressure ( in mb ) Visibility ( mi km ) Precip ( " mm )
12:15 am 00:15 Mostly Cloudy 23 -5 19 -7.2 85 85 W 7 11 30.26 1025 10 16.0934 0 0
12:35 am 00:35 Mostly Cloudy 23 -5 19 -7.2 85 85 NW 5 7 30.26 1025 10 16.0934 0 0
12:55 am 00:55 Partly Cloudy 22 -5.6 19 -7.5 87 87 WNW 6 9 30.26 1025 10 16.0934 0 0
1:15 am 01:15 Partly Cloudy 21 -6.3 18 -7.7 90 90 WNW 6 9 30.26 1025 10 16.0934 0 0
1:35 am 01:35 Cloudy 22 -5.5 19 -7.1 89 89 NW 5 7 30.25 1024 10 16.0934 0 0
1:55 am 01:55 Cloudy 21 -6.2 18 -7.7 89 89 NNW 8 13 30.26 1025 10 16.0934 0 0
2:15 am 02:15 Mostly Cloudy 22 -5.5 19 -7.3 87 87 NW 7 11 30.25 1024 10 16.0934 0 0
2:35 am 02:35 Partly Cloudy 20 -6.4 17 -8.1 88 88 NW 6 9 30.25 1024 10 16.0934 0 0
2:55 am 02:55 Partly Cloudy 21 -6 18 -7.8 87 87 WNW 7 11 30.24 1024 10 16.0934 0 0
3:15 am 03:15 Cloudy 22 -5.8 19 -7.3 89 89 WNW 5 7 30.24 1024 10 16.0934 0 0
3:35 am 03:35 Cloudy 22 -5.7 19 -7.4 88 88 NW 7 11 30.24 1024 10 16.0934 0 0
3:55 am 03:55 Cloudy 24 -4.7 20 -6.5 87 87 NW 5 7 30.21 1023 10 16.0934 0 0
4:15 am 04:15 Mostly Cloudy 23 -5.1 20 -6.6 89 89 NW 6 9 30.21 1023 10 16.0934 0 0
4:35 am 04:35 Partly Cloudy 22 -5.5 19 -7.1 89 89 W 9 15 30.21 1023 10 16.0934 0 0
4:55 am 04:55 Clear 22 -5.6 19 -7.1 89 89 W 8 13 30.21 1023 10 16.0934 0 0
5:15 am 05:15 Clear 21 -6.1 19 -7.5 90 90 WNW 7 11 30.22 1023 10 16.0934 0 0
5:35 am 05:35 Clear 21 -6 19 -7.3 91 91 W 8 13 30.23 1024 10 16.0934 0 0
5:55 am 05:55 Clear 21 -6.1 19 -7.4 91 91 WNW 9 15 30.23 1024 10 16.0934 0 0
6:15 am 06:15 Clear 22 -5.5 20 -6.7 91 91 W 9 15 30.22 1023 10 16.0934 0 0
6:35 am 06:35 Clear 22 -5.4 20 -6.7 91 91 WNW 10 17 30.22 1023 10 16.0934 0 0
6:55 am 06:55 Mostly Cloudy 22 -5.7 19 -7 91 91 WNW 8 13 30.23 1024 10 16.0934 0 0
7:35 am 07:35 Cloudy 24 -4.5 22 -5.8 91 91 NW 6 9 30.22 1023 10 16.0934 0 0
7:55 am 07:55 Partly Cloudy 26 -3.4 22 -5.3 87 87 WNW 9 15 30.21 1023 10 16.0934 0 0
8:15 am 08:15 Partly Cloudy 26 -3.2 22 -5.3 86 86 NW 6 9 30.22 1023 10 16.0934 0 0
8:35 am 08:35 Mostly Cloudy 28 -2 24 -4.5 83 83 WNW 10 17 30.21 1023 10 16.0934 0 0
8:55 am 08:55 Cloudy 29 -1.4 24 -4.2 81 81 WNW 12 19 30.22 1023 10 16.0934 0 0
9:15 am 09:15 Cloudy 30 -1 25 -3.9 81 81 WNW 10 17 30.22 1023 10 16.0934 0 0
9:35 am 09:35 Cloudy 31 -0.6 26 -3.6 80 80 WNW 9 15 30.21 1023 10 16.0934 0 0
9:55 am 09:55 Cloudy 32 -0.2 26 -3.2 80 80 WNW 9 15 30.22 1023 10 16.0934 0 0
10:15 am 10:15 Cloudy 32 -0.1 26 -3.1 80 80 WNW 8 13 30.22 1023 10 16.0934 0 0
10:35 am 10:35 Cloudy with Light Snow 32 0.2 27 -3 79 79 NW 9 15 30.23 1024 10 16.0934 0 0
10:55 am 10:55 Cloudy with Light Snow 32 0 28 -2.4 84 84 WNW 10 17 30.23 1024 2.5 4.02335 0 0
11:15 am 11:15 Cloudy with Light Snow 32 -0.1 30 -1 94 94 WNW 9 15 30.25 1024 0.75 1.207005 0 0
11:35 am 11:35 Cloudy with Snow 32 0 31 -0.4 97 97 WNW 10 17 30.26 1025 0.75 1.207005 0 0
11:55 am 11:55 Cloudy with Light Snow 32 0.2 32 0 99 99 NW 12 19 30.27 1025 1 1.60934 0.01 0.254
12:15 pm 12:15 Cloudy with Snow 33 0.5 32 0.1 97 97 NW 8 13 30.26 1025 0.5 0.80467 0.01 0.254
12:35 pm 12:35 Cloudy with Light Snow 33 0.8 33 0.4 97 97 NW 12 19 30.27 1025 2 3.21868 0.01 0.254
12:55 pm 12:55 Cloudy with Light Snow 33 0.8 33 0.3 97 97 NW 10 17 30.27 1025 1.25 2.011675 0.01 0.254
1:15 pm 13:15 Cloudy with Light Snow 34 0.9 33 0.6 98 98 NW 8 13 30.27 1025 0.75 1.207005 0 0
1:35 pm 13:35 Cloudy 35 1.5 33 0.7 94 94 NNW 9 15 30.25 1024 10 16.0934 0.01 0.254
1:55 pm 13:55 Mostly Cloudy 36 2.1 33 0.4 89 89 NNW 12 19 30.25 1024 10 16.0934 0.01 0.254
2:15 pm 14:15 Mostly Cloudy 37 2.5 32 0.1 84 84 NNW 14 22 30.24 1024 10 16.0934 0 0
2:35 pm 14:35 Cloudy 37 2.5 33 0.4 86 86 NW 15 24 30.25 1024 10 16.0934 0 0
2:55 pm 14:55 Cloudy 37 2.9 32 -0.1 81 81 NW 18 30 30.26 1025 10 16.0934 0 0
3:15 pm 15:15 Cloudy 37 3 32 0 81 81 NW 15 24 30.26 1025 10 16.0934 0 0
3:35 pm 15:35 Mostly Cloudy 38 3.1 32 0 80 80 NNW 16 26 30.26 1025 10 16.0934 0 0
3:55 pm 15:55 Partly Cloudy 38 3.4 31 -0.4 76 76 NNW 16 26 30.25 1025 10 16.0934 0 0
4:15 pm 16:15 Partly Cloudy 39 3.7 32 -0.1 76 76 NW 16 26 30.25 1024 10 16.0934 0 0
4:35 pm 16:35 Partly Cloudy 39 3.7 31 -0.4 75 75 NNW 17 28 30.25 1024 10 16.0934 0 0
4:55 pm 16:55 Sunny 39 3.8 31 -0.6 73 73 NNW 12 19 30.25 1024 10 16.0934 0 0
5:15 pm 17:15 Sunny 38 3.6 31 -0.5 75 75 NW 9 15 30.25 1024 10 16.0934 0 0
5:35 pm 17:35 Sunny 38 3.5 31 -0.5 75 75 NW 10 17 30.25 1024 10 16.0934 0 0
5:55 pm 17:55 Sunny 37 2.9 31 -0.5 79 79 WNW 7 11 30.26 1025 10 16.0934 0 0
6:15 pm 18:15 Sunny 35 1.5 31 -0.6 86 86 W 7 11 30.27 1025 10 16.0934 0 0
6:35 pm 18:35 Clear 34 1 30 -1 87 87 W 6 9 30.29 1026 10 16.0934 0 0
6:55 pm 18:55 Clear 32 0.2 30 -1.1 91 91 W 5 7 30.3 1026 10 16.0934 0 0
7:15 pm 19:15 Clear 31 -0.3 29 -1.8 90 90 WNW 5 7 30.3 1026 10 16.0934 0 0
7:35 pm 19:35 Clear 31 -0.5 29 -1.6 92 92 W 5 7 30.3 1026 10 16.0934 0 0
7:55 pm 19:55 Clear 31 -0.8 28 -2 92 92 W 5 7 30.3 1026 10 16.0934 0 0
8:15 pm 20:15 Clear 30 -1.2 28 -2.4 92 92 W 6 9 30.3 1026 10 16.0934 0 0
8:35 pm 20:35 Clear 30 -1.1 28 -2.5 90 90 WNW 5 7 30.29 1026 10 16.0934 0 0
8:55 pm 20:55 Clear 30 -1.3 27 -2.7 90 90 W 5 7 30.29 1026 10 16.0934 0 0
9:15 pm 21:15 Clear 29 -1.9 26 -3.1 92 92 Calm 30.31 1026 10 16.0934 0 0
9:35 pm 21:35 Clear 29 -1.9 26 -3.2 91 91 W 3 6 30.31 1026 10 16.0934 0 0
9:55 pm 21:55 Clear 29 -1.6 26 -3.1 90 90 Calm 30.3 1026 10 16.0934 0 0
10:15 pm 22:15 Clear 28 -2.2 26 -3.5 91 91 W 7 11 30.31 1026 10 16.0934 0 0
10:35 pm 22:35 Clear 28 -2 26 -3.5 90 90 W 7 11 30.3 1026 10 16.0934 0 0
10:55 pm 22:55 Clear 29 -1.7 26 -3.5 88 88 W 7 11 30.29 1026 10 16.0934 0 0
11:15 pm 23:15 Clear 30 -1.1 26 -3.2 86 86 W 9 15 30.29 1026 10 16.0934 0 0
11:35 pm 23:35 Clear 30 -1 26 -3.1 86 86 W 9 15 30.29 1026 10 16.0934 0 0
11:55 pm 23:55 Clear 29 -1.5 26 -3.3 88 88 W 9 15 30.29 1026 10 16.0934 0 0

Powered by AerisWeather